www.pogodaiklimat.ru
ПОГОДА в Поломе

Архив погоды в Поломе (Чехия)

Время
(UTC), дата
10 18.06
11 18.06
12 18.06
13 18.06
14 18.06
15 18.06
16 18.06
17 18.06
18 18.06
19 18.06
20 18.06
21 18.06
22 18.06
23 18.06
00 19.06
01 19.06
02 19.06
03 19.06
04 19.06
05 19.06
06 19.06
07 19.06
08 19.06
09 19.06
10 19.06
11 19.06
12 19.06
13 19.06
14 19.06
15 19.06
16 19.06
17 19.06
18 19.06
19 19.06
20 19.06
21 19.06
22 19.06
23 19.06
00 20.06
01 20.06
02 20.06
03 20.06
04 20.06
05 20.06
06 20.06
07 20.06
08 20.06
09 20.06
10 20.06
11 20.06
12 20.06
13 20.06
14 20.06
15 20.06
16 20.06
17 20.06
18 20.06
19 20.06
20 20.06
21 20.06
22 20.06
23 20.06
00 21.06
01 21.06
02 21.06
03 21.06
04 21.06
05 21.06
06 21.06
07 21.06
08 21.06
09 21.06
10 21.06
11 21.06
12 21.06
13 21.06
14 21.06
15 21.06
16 21.06
17 21.06
18 21.06
19 21.06
20 21.06
21 21.06
22 21.06
23 21.06
00 22.06
01 22.06
02 22.06
03 22.06
04 22.06
05 22.06
06 22.06
07 22.06
08 22.06
09 22.06
10 22.06
11 22.06
12 22.06
13 22.06
14 22.06
15 22.06
16 22.06
17 22.06
18 22.06
19 22.06
20 22.06
21 22.06
22 22.06
23 22.06
00 23.06
01 23.06
02 23.06
03 23.06
04 23.06
05 23.06
06 23.06
07 23.06
08 23.06
09 23.06
10 23.06
11 23.06
12 23.06
13 23.06
14 23.06
15 23.06
16 23.06
17 23.06
18 23.06
19 23.06
20 23.06
21 23.06
22 23.06
23 23.06
00 24.06
01 24.06
02 24.06
03 24.06
04 24.06
05 24.06
06 24.06
07 24.06
08 24.06
09 24.06
10 24.06
11 24.06
12 24.06
13 24.06
14 24.06
15 24.06
16 24.06
17 24.06
18 24.06
19 24.06
20 24.06
21 24.06
22 24.06
Ветер
(напр.,м/с)
Видим. Явления Облачность Т
(С)
Тd
(С)
f
(%)
Тe
(С)
Тes
(С)
Комфортность P
(гПа)
Po
(гПа)
Тmin
(С)
Tmax
(С)
R
(мм)
R24
(мм)
S
(см)
ЮЗ 3 50 км 4/4 1110 м
[Cu med, cong]
+21.4 +15.3 68 +25 +33 комфорт 1015.9 932.8
ЮЗ 2 50 км 4/4 1050 м
[Cu med, cong]
+22.6 +15.0 62 +26 +37 жарко 1015.5 932.7
З 1 50 км 4/4 1110 м
[Cu med, cong]
+23.1 +14.7 59 +27 +39 душно 1015.0 932.4 1.5
2 50 км 4/4 1230 м
[Cu med, cong Ci fib]
+24.5 +15.2 56 +27 +36 жарко 1014.3 932.1
2 50 км 4/3 1350 м
[Cu med, cong Ci fib]
+25.0 +14.8 53 +28 +35 жарко 1013.8 931.8
нст 3 50 км 3/3 1440 м
[Cu med, cong]
+24.6 +14.7 54 +27 +32 жарко 1013.4 931.3 1.5
Ю 4 40 км 1/0
[Ci fib]
+24.4 +13.0 49 +26 +29 жарко 1012.8 930.7
Ю 4 40 км 5/0
[Ci sp]
+23.9 +13.5 52 +26 +27 жарко 1012.3 930.1
Ю 4 40 км 5/0
[Ci sp]
+22.5 +13.8 58 +26 +26 жарко 1012.2 929.6 +25.2 1.6
Ю 4 40 км 5/0
[Ci sp]
+21.0 +14.2 65 +24 +24 комфорт 1012.8 929.8
Ю 4 30 км ясно +20.5 +14.8 70 +23 +23 комфорт 1012.5 929.4
Ю 4 20 км 10/0
[Cs]
+20.5 +14.8 70 +23 +23 комфорт 1012.2 929.1 1.6
Ю 5-10 {11} 20 км 10/0
[Cs]
+20.4 +14.3 68 +23 +23 комфорт 1011.3 928.3
Ю 5 {13} 20 км 10/0
[Cs]
+20.0 +14.1 69 +22 +22 комфорт 1011.4 928.2
Ю 4-9 {13} 20 км 10/0
[Cs]
+19.8 +14.0 69 +22 +22 комфорт 1011.4 928.2 1.6
Ю 5 {11} 20 км 10/0
[Cs]
+19.6 +14.2 71 +21 +21 комфорт 1011.0 927.8
ЮВ 4 10 км 10/0
[Cs]
+19.4 +14.6 74 +21 +21 комфорт 1011.5 928.2
ЮВ 3 {11} 15 км 8/0
[Ci sp]
+18.8 +14.5 76 +20 +20 1011.6 928.1 1.6
ЮВ 4 15 км 8/0
[Ci sp]
+19.0 +14.7 76 +20 +21 1011.1 927.7
Ю 3 20 км 4/0
[Ac trans Ci fib]
+20.0 +15.4 75 +23 +24 комфорт 1011.4 928.3
ЮВ 3 {11} 25 км 4/0
[Ac trans Ci fib]
+20.8 +15.6 72 +24 +27 комфорт 1011.0 928.1 +18.6 1.6
Ю 3 20 км 6/0
[Ac trans Ci fib]
+22.0 +16.1 69 +26 +30 душно 1011.1 928.6
ЮЗ 2 20 км 4/0
[Ac trans Ci fib]
+22.8 +16.8 69 +28 +38 душно 1011.2 928.9
ЮЗ 2 18 км 5/3 700 м
[Cu hum Ac trans Ci fib]
+23.5 +17.0 67 +27 +36 душно 1011.4 929.3 1.6
Ю 2 18 км 6/3 750 м
[Cu hum Ac trans Ci fib]
+23.9 +13.2 51 +26 +35 жарко 1011.6 929.4
З 2 20 км 6/1 800 м
[Cu hum Ac trans Ci fib]
+24.9 +14.1 51 +27 +39 жарко 1011.3 929.4
З 2 25 км 8/1 1200 м
[Cu hum Ac trans Ci fib]
+25.8 +16.1 55 +29 +38 душно 1010.9 929.4 1.6
З 2 25 км 9/0
[Ac trans]
+23.3 +15.4 61 +28 +34 душно 1011.8 929.5
СЗ 3 25 км 5/0
[Ac trans]
+22.8 +14.6 60 +26 +33 жарко 1011.7 929.3
нст 1 25 км 6/0
[Ac trans]
+22.8 +14.1 58 +26 +32 жарко 1011.7 929.3 1.6
С 2 18 км 8/0
[Ac trans]
+21.9 +13.8 60 +25 +27 комфорт 1012.1 929.4
С 5 4000 м в посл. час ливневой дождь 9/9 60 м
[Cu med, cong Ac trans]
+16.6 +15.5 93 +16 +16 1014.9 930.6
С 4 12 км {ливн. дождь} 6/3 840 м
[Cu med, cong Ac trans]
+16.2 +14.6 90 +15 +16 1015.2 930.7 +26.3 0.4 1.6
С 5 15 км 5/3 90 м
[St Ac trans]
+15.0 +13.5 91 +14 +14 1016.4 931.4
С 4 15 км 9/9 210 м
[Cu Sc]
+14.7 +13.2 91 +13 +13 1017.9 932.7
С 4 15 км 9/9 30 м
[Sc]
+13.1 +12.3 95 +11 +11 1019.4 933.6 1.7
С 4 1500 м дымка 10/10 60 м
[St]
+11.8 +11.0 95 +10 +10 1020.2 933.9
С 4 15 км 10/10 210 м
[Sc]
+11.7 +10.8 94 +9 +9 1021.1 934.7
С 4 15 км 5/5 150 м
[Cu Sc]
+11.5 +10.4 93 +9 +9 1021.2 934.7 1.6
С 2 15 км 5/5 60 м
[St]
+10.8 +9.2 90 +9 +9 1021.6 934.9
СВ 4 20 км ясно +10.7 +8.5 86 +8 +8 1021.5 934.7
СВ 2 25 км ясно +10.8 +7.9 82 +9 +9 1021.9 935.1 1.6
СВ 1 30 км 5/0
[Ci sp]
+10.5 +8.1 85 +10 +11 1023.2 936.2
СВ 3 30 км 5/0
[Ci sp]
+11.8 +8.1 78 +10 +12 1023.0 936.4
З 1 20 км 9/9 800 м
[Sc]
+13.3 +8.8 74 +14 +14 1022.9 936.8 +10.3 0.4
СВ 2 20 км 9/9 700 м
[Sc]
+13.4 +7.2 66 +13 +14 1023.4 937.2
СЗ 1 20 км 9/9 700 м
[Sc]
+13.6 +8.0 69 +14 +15 1023.0 936.9
СВ 1 20 км 9/9 700 м
[Sc]
+15.1 +7.2 59 +16 +18 1022.1 936.5 1.6
Ю 2 20 км 8/1 600 м
[Cu hum Ci sp]
+17.4 +8.8 57 +18 +31 опасность простуды 1022.4 937.5
ЮЗ 1 20 км 8/0
[Ci sp]
+16.7 +7.6 55 +18 +35 опасность простуды 1022.1 937.0
З 1 20 км 8/0
[Ci sp]
+17.9 +9.8 59 +19 +36 опасность простуды 1021.5 936.8 1.6
З 1 20 км 10/0
[Cs]
+17.9 +9.8 59 +19 +33 опасность простуды 1021.1 936.4
С 2 20 км 10/0
[Cs]
+18.7 +10.3 58 +20 +29 1020.4 936.0
СЗ 1 20 км 10/0
[Cs]
+20.1 +10.5 54 +23 +30 комфорт 1019.4 935.5 1.6
СЗ 1 20 км 10/0
[Cs]
+19.3 +10.8 58 +21 +26 комфорт 1019.3 935.2
Ю 1 20 км 10/0
[Cs]
+18.2 +9.0 55 +19 +21 1019.6 935.1
ЮВ 1 20 км 10/0
[Ac As]
+17.3 +11.1 67 +18 +19 1018.9 934.3 +21.1 1.6
Ю 1 30 км 6/0
[Ac trans]
+16.4 +10.5 68 +17 +17 1018.3 933.5
ЮВ 2 30 км 6/0
[Ac trans]
+16.3 +10.6 69 +16 +16 1018.9 934.0
Ю 2 30 км 6/0
[Ac trans]
+16.5 +10.8 69 +17 +17 1019.4 934.5 1.6
ЮВ 2 30 км 8/0
[Ac trans]
+16.3 +10.4 68 +16 +16 1020.0 935.0
Ю 2 30 км 10/0
[Ac As]
+17.8 +11.4 66 +18 +18 1018.8 934.3
Ю 1 30 км 10/0
[Ac As]
+17.2 +12.1 72 +18 +18 1018.1 933.6 1.6
ЮВ 2 30 км 10/0
[Ac As]
+16.8 +11.7 72 +17 +17 1017.8 933.2
Ю 2 30 км 6/0
[Ac trans]
+16.3 +11.5 73 +16 +16 1017.6 932.8
ЮВ 3 30 км 3/0
[Ac trans]
+17.2 +11.2 68 +17 +17 1017.4 932.9 1.6
Ю 3 40 км 3/0
[Ac trans]
+17.6 +13.7 78 +18 +18 1017.0 932.7
Ю 2 40 км 1/0
[Ci fib]
+18.1 +13.6 75 +19 +21 1017.0 932.8
Ю 2 40 км 4/0
[Ci fib]
+19.5 +14.7 74 +22 +26 комфорт 1016.5 932.8 +16.0 1.6
Ю 2 30 км 4/0
[Ci fib]
+20.9 +15.7 72 +25 +32 комфорт 1015.7 932.5
Ю 4 30 км 8/0
[Cs]
+21.5 +15.1 67 +25 +31 комфорт 1015.5 932.4
Ю 3 30 км 6/0
[Cs]
+23.6 +17.4 68 +27 +38 жарко 1014.4 932.1 1.6
ЮВ 3 20 км 6/0
[Ci sp]
+24.7 +16.9 62 +28 +41 душно 1013.8 931.8
Ю 3 20 км 5/0
[Ci sp]
+26.0 +17.4 59 +30 +43 душно 1013.0 931.4
Ю 3 20 км 8/0
[Ci]
+27.0 +17.2 55 +31 +43 душно 1012.3 931.0 1.6
Ю 2 20 км 8/0
[Ac trans Ci sp]
+25.9 +19.1 66 +31 +41 очень душно 1012.1 930.6
Ю 3 20 км 8/0
[Ci sp]
+26.9 +19.5 64 +33 +40 очень душно 1010.9 929.8
Ю 3 15 км 6/0
[Ci sp]
+27.1 +18.9 61 +32 +38 очень душно 1009.7 928.7 1.6
Ю 3 12 км 10/0
[Cs]
+24.3 +18.7 71 +29 +32 душно 1009.7 928.0
Ю 4 10 км 10/0
[As op]
+23.0 +19.2 79 +29 +30 очень душно 1010.7 928.6
Ю 4 4000 м слаб. дождь {гроза} 10/0
[As op]
+21.1 +19.9 93 +26 +26 душно 1011.8 929.1 +27.8 0.8 1.7
Ю 4 {14} 2000 м слаб. дождь 10/0
[As op]
+20.3 +18.6 90 +24 +24 комфорт 1010.0 927.2
ЮВ 3 2000 м в посл. час дождь 10/5 500 м
[Sc As op]
+19.5 +18.7 95 +22 +22 комфорт 1010.9 927.8
ЮВ 2 {14} 5000 м дымка {дождь} 10/0
[As op]
+19.2 +18.5 96 +22 +22 комфорт 1011.2 928.0 1.7
ЮВ 2 10 км 10/0
[Cs]
+19.4 +17.7 90 +22 +22 комфорт 1010.7 927.6
ЮВ 2 10 км 10/0
[Cs]
+19.3 +18.1 93 +22 +22 комфорт 1010.3 927.2
Ю 1 {14} 100 м туман, небо не видно {дождь} ?/? +18.1 +17.5 96 +19 +19 1010.3 926.8 1 1.7
ЮЗ 1 10 км в посл. час туман 10/10 90 м
[Sc]
+17.8 +17.3 97 +19 +19 1009.6 926.1
ЮЗ 3 {12} 100 м слаб. дождь {туман} ?/? +15.2 +14.7 97 +14 +14 1012.2 927.7
З 2 {12} 3000 м в посл. час дождь {туман} 10/10 60 м
[St]
+14.4 +13.9 97 +14 +14 1012.9 928.1 1.7
С 1 20 км 10/0
[As op]
+15.1 +13.5 90 +16 +16 1010.7 926.2
Ю 4 5000 м слаб. дождь 10/10 660 м
[Sc]
+14.2 +13.2 94 +13 +13 1012.3 927.4
ЮЗ 2 {12} 2000 м в посл. час дождь {туман} 10/10 60 м
[St]
+13.9 +13.3 96 +13 +13 1011.9 927.0 +13.8 4 5.1
ЮЗ 3 {11} 1000 м дымка 10/10 60 м
[St]
+13.9 +13.4 97 +13 +13 1012.0 927.1
ЮЗ 4 1000 м дымка 10/10 60 м
[St]
+13.8 +13.3 97 +12 +12 1012.2 927.2
ЮЗ 3-11 {14} 10 км слаб. дождь 9/9 420 м
[Cu Sc]
+14.4 +13.9 97 +13 +15 1012.3 927.5 1.7
ЮЗ 2 {11} 15 км 9/9 420 м
[Cu Sc]
+15.1 +13.1 88 +15 +17 1012.5 927.9
ЮЗ 3 30 км 8/8 600 м
[Cu med, cong]
+16.5 +12.8 79 +16 +19 1012.3 928.1
З 2-8 {14} 30 км {дождь} 8/8 700 м
[Cu Sc]
+17.5 +12.2 71 +18 +21 1011.9 928.0 0.2 1.7
ЮЗ 3 30 км 8/8 720 м
[Cu Sc]
+18.6 +13.2 71 +19 +22 1011.6 928.0
ЮЗ 2 30 км 8/8 700 м
[Cu med, cong]
+19.5 +13.9 70 +22 +24 комфорт 1011.2 927.9
З 2 30 км 5/5 930 м
[Cu med, cong]
+18.0 +12.0 68 +19 +22 1011.4 927.6 1.7
ЮЗ 2 30 км 4/4 1110 м
[Cu med, cong]
+18.7 +7.5 48 +20 +22 1011.2 927.5
З 2 30 км ясно +18.5 +7.6 49 +19 +21 1011.2 927.5
З 1 30 км 3/3 900 м
[Cu hum]
+16.9 +8.3 57 +18 +18 1011.8 927.6 +20.2 0.2 1.7
1 25 км 3/3 1200 м
[Sc]
+16.0 +8.5 61 +17 +17 1012.7 928.2
С 2 25 км 3/3 1200 м
[Sc]
+15.3 +8.1 62 +15 +15 1013.5 928.7
С 2 25 км 3/0
[Ci fib]
+14.9 +7.7 62 +15 +15 1014.2 929.2 1.7
С 2 25 км ясно +14.7 +7.5 62 +14 +14 1014.1 929.1
С 2 25 км ясно +14.7 +8.0 64 +14 +14 1013.9 928.9
С 2 25 км ясно +14.3 +6.9 61 +14 +14 1014.3 929.1 1.7
С 2 25 км ясно +14.3 +6.6 60 +14 +14 1014.5 929.3
С 2 20 км ясно +14.1 +7.2 63 +14 +14 1015.0 929.7
С 3 30 км ясно +14.1 +7.8 66 +13 +13 1015.2 929.9 1.7
С 3 30 км ясно +14.4 +9.0 70 +14 +14 1015.3 930.1
С 2 30 км 1/0
[Ci fib]
+14.1 +9.3 73 +14 +16 1016.1 930.8
С 2 20 км 3/1 660 м
[Cu hum Ci fib]
+15.3 +9.4 68 +15 +19 1016.0 931.0 +13.7 0.2
С 3 20 км 3/1 700 м
[Cu hum Ci fib]
+16.0 +9.0 63 +16 +22 1016.1 931.3
С 3 20 км 4/1 720 м
[Cu hum Ci fib]
+16.9 +9.3 61 +17 +25 1015.9 931.4
СЗ 4 20 км 4/3 800 м
[Cu hum Ci fib]
+17.8 +8.9 56 +18 +25 1015.9 931.6 1.6
З 2 20 км 8/6 960 м
[Cu med, cong Ci fib]
+18.2 +10.6 61 +19 +25 1015.9 931.8
СЗ 2 20 км 8/6 1020 м
[Cu med, cong Ci fib]
+18.5 +9.8 57 +19 +26 1016.0 931.9
З 2 20 км 8/5 1110 м
[Cu med, cong Ac cuf]
+19.6 +11.1 58 +21 +26 комфорт 1015.6 931.9 1.6
ЮЗ 1 20 км 8/4 1140 м
[Cu med, cong Ac cuf]
+21.0 +13.4 62 +25 +30 комфорт 1014.9 931.7
СЗ 3 20 км 5/3 1200 м
[Cu med, cong Ac cuf]
+19.9 +10.0 53 +21 +27 комфорт 1015.4 931.8
С 2 20 км 8/4 1300 м
[Cu med, cong Ac cuf]
+20.1 +10.8 55 +22 +25 комфорт 1015.4 931.8 1.6
СЗ 4 20 км 4/1 1350 м
[Cu med, cong Ac cuf Ci fib]
+20.2 +9.2 49 +22 +24 комфорт 1015.5 931.9
СЗ 4 20 км 4/1 1380 м
[Cu hum Ci fib]
+19.4 +9.6 53 +20 +21 1015.8 932.0
СЗ 4 20 км ясно +18.4 +9.7 57 +19 +19 1016.6 932.4 +23.0 1.6
С 3 20 км ясно +16.9 +9.8 63 +17 +17 1017.4 932.8
С 4 20 км ясно +15.8 +9.9 68 +15 +15 1018.3 933.3
С 2 20 км ясно +15.1 +10.1 72 +15 +15 1018.6 933.4 1.6
СВ 2 20 км ясно +14.5 +10.3 76 +14 +14 1019.0 933.6
СВ 2 20 км ясно +14.1 +10.5 79 +14 +14 1019.1 933.6
С 2 20 км ясно +13.7 +9.9 78 +13 +13 1019.3 933.6 1.6
С 2 20 км ясно +13.3 +9.9 80 +13 +13 1019.3 933.5
С 2 10 км ясно +12.8 +8.9 77 +12 +12 1019.6 933.6
С 1 10 км ясно +12.3 +9.0 80 +12 +12 1020.0 933.8 1.6
СВ 1 15 км ясно +12.1 +8.9 81 +12 +13 1020.1 933.9
С 1 15 км 9/9 1050 м
[Sc]
+13.4 +9.6 78 +14 +14 1019.9 934.1
С 2 20 км 8/8 1170 м
[Sc]
+14.2 +10.2 77 +14 +15 1019.9 934.3 +12.1 1.6
С 4 20 км 9/9 930 м
[Cu Sc]
+14.5 +9.3 71 +13 +14 1019.9 934.4
С 2 20 км 8/8 720 м
[Cu Sc]
+15.1 +9.5 69 +15 +17 1020.0 934.6
СВ 2 15 км 9/9 840 м
[Cu Sc]
+15.1 +9.9 71 +15 +16 1020.2 934.8 1.6
С 2 15 км 9/9 750 м
[Cu Sc]
+15.7 +9.4 66 +16 +17 1019.9 934.7
СВ 2 20 км 9/9 870 м
[Cu Sc]
+16.0 +9.2 64 +16 +18 1019.9 934.8
З 3 20 км 9/9 960 м
[Cu Sc]
+17.5 +9.2 58 +18 +19 1019.0 934.4 1.6
С 3 20 км 9/9 870 м
[Cu Sc]
+16.3 +9.3 63 +16 +17 1019.3 934.3
С 2 25 км 9/9 930 м
[Cu Sc]
+16.7 +9.1 61 +17 +18 1019.2 934.3
С 2 25 км 8/8 1300 м
[Cu med, cong]
+17.0 +9.2 60 +17 +19 1019.0 934.2 1.6
С 2 25 км 5/5 1230 м
[Cu med, cong]
+18.0 +9.1 56 +19 +21 1018.4 934.0
С 2 30 км 4/1 1260 м
[Cu med, cong Ac cuf]
+17.4 +9.6 60 +18 +19 1018.6 934.0
С 2 20 км 5/4 1000 м
[Sc Ac trans]
+16.3 +9.7 65 +16 +17 1018.8 933.9 +21.8 1.6
С 2 20 км 6/6 1230 м
[Sc]
+15.5 +9.6 68 +15 +15 1019.2 934.0
С 2 20 км 6/6 1140 м
[Sc]
+14.9 +9.3 69 +15 +15 1019.8 934.4
С 2 20 км 8/8 1170 м
[Sc]
+14.6 +9.4 71 +14 +14 1019.8 934.3
С 2 20 км 4/4 1200 м
[Sc]
+13.9 +9.1 73 +13 +13 1019.9 934.2 1.6
Местоположение метеостанции Полом (Чехия): широта 50.35 долгота 16.32 высота над уровнем моря 747 м.
В архиве по умолчанию представлена погода в Поломе за последнюю неделю. Архивные данные за месяц целиком и за предыдущие месяцы, начиная с января 2011 года, Вы можете получить, выбрав интересующий диапазон дат из раскрывающегося списка и нажав кнопку "Найти!".
*Определитесь, кто Вы:
Внимание! Время в таблицах - всемирное. Для получения местного времени необходимо прибавить поправку, которая равна 1 ч.
Некоторые строки с данными для отдельных станций могут быть выделены курсивом. Это означает, что фактические данные отсутствуют по различным причинам, а приведенные значения являются расчетными модельными данными для данного пункта наблюдений.
Смотрите также архив погоды в соседних городах и на ближайших метеорологических станциях:
Партнеры нашего сайта:      
Пояснения к столбцам:
  • Ветер - указаны скорость ветра в м/с - средняя за 10 мин, порывы в срок и между сроками (в фигурных скобках) и направление, откуда дует ветер: С - северный,
  • СВ - северо-восточный, В - восточный, ЮВ - юго-восточный, Ю - южный, ЮЗ - юго-западный, З - западный, СЗ - северо-западный.
  • Видимость - горизонтальная дальность видимости в метрах или километрах. При видимости от 1 до 10 км при отсутствии осадков обычно наблюдается дымка, при ухудшении видимости до 1 км и менее - туман. В сухую погоду видимость может ухудшаться дымом, пылью или мглою.
  • Явления - указаны атмосферные явления, наблюдавшиеся в срок или в последний час перед сроком; фигурными скобками обозначены явления, наблюдавшиеся между сроками (за 1-3 часа до срока); квадратными скобками обозначены град или гололедные отложения с указанием их диаметра в мм.
  • Облачность - указаны через наклонную черту общая и нижняя облачность в баллах и высота нижней границы облаков в метрах; квадратными скобками обозначены формы облаков: Ci - перистые, Cs - перисто-слоистые, Cc - перисто-кучевые, Ac - высококучевые, As - высокослоистые, Sc - слоисто-кучевые, Ns - слоисто-дождевые, Cu - кучевые, Cb - кучево-дождевые. Подробнее классификацию облаков см. в Атласе облаков (PDF).
  • T - Температура воздуха - температура, измеренная на высоте 2 м над землей.
  • Td - Температура точки росы - температура, при понижении до которой содержащийся в воздухе водяной пар достигнет насыщения.
  • f - Относительная влажность воздуха - влажноcть воздуха, измеренная на высоте 2 м над землей.
  • Te - Эффективная температура - температура, которую ощущает одетый по сезону человек в тени. Характеристика душности погоды. При расчете учитывается влияние влажности воздуха и скорости ветра на теплоощущения человека.
  • Tes - Эффективная температура на солнце - температура, которую ощущает человек, с поправкой на солнечный нагрев. Характеристика знойности погоды. Зависит от высоты солнца над горизонтом, облачности и скорости ветра. Ночью, в пасмурную погоду, а также при ветре 12 м/с и более поправка равна нулю.
  • P - Атмосферное давление - приведенное к уровню моря атмосферное давление.
  • Po - Атмосферное давление - измеренное на уровне метеостанции атмосферное давление.
  • Tmin - Минимальная температура - минимум температуры воздуха на высоте 2 м над землей.
  • Tmax - Максимальная температура - максимум температуры воздуха на высоте 2 м над землей.
  • R - Количество осадков - Количество выпавших осадков за период времени, мм. При наведении курсора мыши на число - период времени, за который выпало указанное количество осадков.
  • R24 - Количество осадков - Количество выпавших осадков за 24 часа, мм.
  • S - Снежный покров - Высота снежного покрова, см. При наведении курсора мыши на число - состояние снежного покрова и степень покрытия местности в баллах.